Change the Weather History Date:

Sunday, June 23, 2013

  Actual Average Record
Temperature  
Mean Temperature 76 °F -  
Max Temperature 91 °F 82 °F 93 °F (1997)
Min Temperature 66 °F 62 °F 51 °F (1992)
Cooling Degree Days 12    
Growing Degree Days 26 (Base 50)    
Moisture  
Dew Point 66 °F    
Average Humidity 69    
Maximum Humidity 84    
Minimum Humidity 49    
Precipitation  
Precipitation 0.00 in - - ()
Sea Level Pressure  
Sea Level Pressure 30.12 in    
Wind  
Wind Speed 6 mph (South)    
Max Wind Speed 15 mph    
Max Gust Speed 23 mph    
Visibility 10 miles    
Events Rain    
Averages and records for this station are not official NWS values.
T = Trace of Precipitation, MM = Missing Value Source: NWS Daily Summary

Daily Weather History Graph

Daily Weather History Graph

Search for Another Location

Airport or City:

Trip Planner

Search our weather history database for the weather conditions in past years. The results will help you decide how hot, cold, wet, or windy it might be!

Date:

Astronomy

Jun. 23, 2013 Rise Set
Actual Time 5:25 AM EDT 8:31 PM EDT
Civil Twilight 4:51 AM EDT 9:05 PM EDT
Nautical Twilight 4:08 AM EDT 9:48 PM EDT
Astronomical Twilight 3:18 AM EDT 10:38 PM EDT
Moon 8:41 PM EDT (6/23) 5:40 AM EDT (6/23)
Length of Visible Light 16h 13m
Length of Day
15h 06m
Full, 100% of the Moon is Illuminated
Jun 23
Full
Jun 30
Last Quarter
Jul 8
New
Jul 15
First Quarter
Jul 22
Full

Hourly Weather History & Observations

Time (EDT) Temp. Heat Index Dew Point Humidity Pressure Visibility Wind Dir Wind Speed Gust Speed Precip Events Conditions
12:51 AM 69.1 °F - 59.0 °F 70% 30.17 in 10.0 mi Calm Calm - N/A   Clear
1:51 AM 69.1 °F - 60.1 °F 73% 30.17 in 10.0 mi South 3.5 mph - N/A   Clear
2:51 AM 66.9 °F - 61.0 °F 81% 30.16 in 10.0 mi South 4.6 mph - N/A   Clear
3:51 AM 66.9 °F - 61.0 °F 81% 30.15 in 10.0 mi SSW 4.6 mph - N/A   Clear
4:51 AM 66.9 °F - 61.0 °F 81% 30.16 in 10.0 mi South 4.6 mph - N/A   Clear
5:51 AM 66.9 °F - 61.0 °F 81% 30.16 in 10.0 mi SSW 4.6 mph - N/A   Clear
6:51 AM 69.1 °F - 62.1 °F 78% 30.17 in 10.0 mi South 3.5 mph - N/A   Clear
7:51 AM 72.0 °F - 63.0 °F 73% 30.18 in 10.0 mi SW 5.8 mph - N/A   Clear
8:51 AM 75.9 °F - 64.9 °F 69% 30.18 in 10.0 mi South 6.9 mph - N/A   Clear
9:51 AM 80.1 °F 82.3 °F 66.9 °F 64% 30.17 in 10.0 mi South 5.8 mph - N/A   Clear
10:51 AM 82.9 °F 85.0 °F 66.0 °F 56% 30.15 in 10.0 mi South 9.2 mph - N/A   Clear
11:51 AM 84.9 °F 87.1 °F 66.0 °F 53% 30.14 in 10.0 mi WSW 9.2 mph - N/A   Clear
12:51 PM 87.1 °F 89.2 °F 66.0 °F 49% 30.12 in 10.0 mi SSW 15.0 mph - N/A   Clear
1:51 PM 86.0 °F 88.2 °F 66.0 °F 51% 30.11 in 10.0 mi SW 11.5 mph - N/A   Mostly Cloudy
2:51 PM 86.0 °F 88.2 °F 66.0 °F 51% 30.09 in 10.0 mi South 12.7 mph 18.4 mph N/A   Scattered Clouds
3:51 PM 86.0 °F 88.8 °F 66.9 °F 53% 30.06 in 10.0 mi South 8.1 mph - N/A   Mostly Cloudy
4:51 PM 82.9 °F 87.0 °F 70.0 °F 65% 30.06 in 10.0 mi South 11.5 mph 23.0 mph N/A   Mostly Cloudy
5:51 PM 82.0 °F 85.5 °F 69.1 °F 65% 30.06 in 10.0 mi South 12.7 mph - N/A   Mostly Cloudy
6:51 PM 82.0 °F 85.9 °F 70.0 °F 67% 30.05 in 10.0 mi South 10.4 mph 17.3 mph N/A   Overcast
7:51 PM 80.1 °F 83.6 °F 71.1 °F 74% 30.05 in 10.0 mi South 9.2 mph - N/A   Scattered Clouds
8:51 PM 78.1 °F - 70.0 °F 76% 30.06 in 10.0 mi South 6.9 mph - N/A   Scattered Clouds
9:51 PM 77.0 °F - 70.0 °F 79% 30.06 in 10.0 mi South 9.2 mph - 0.00 in Rain Light Rain
10:51 PM 77.0 °F - 71.1 °F 82% 30.06 in 10.0 mi SW 6.9 mph - 0.00 in Rain Light Rain
11:51 PM 75.0 °F - 70.0 °F 84% 30.07 in 10.0 mi South 5.8 mph - 0.00 in Rain Light Rain